Location: Strawberry
(45.6646°N, 111.9596°W)
Time: 14:46:10
(UTC+00:00)

Tiangong - Pass Details

Date: 19 August 2022
Orbit: 377 x 382 km, 41.5° (Epoch: 27 September)

Event Time Altitude Azimuth Distance (km) Brightness Sun altitude
Rises 05:08:32 0° 263° (W) 2,236 2.2 -23.3°
Reaches altitude 10° 05:10:41 10° 254° (WSW) 1,383 0.9 -23.5°
Enters shadow 05:10:45 10° 254° (WSW) 1,360 0.9 -23.5°
